Погода в Сухиничи

Погода в Сухиничи : погода сейчас, прогноз погоды и архив. Всё, что Вы хотите узнать о погоде в Сухиничи!

Хотите узнать прогноз погоды в Сухиничи? Тогда Вам сюда: Погода в Сухиничи

Поиск расширенной информации на нашем сайте:

Полезная информация:

Другие новости

Новости СМИ2

Главная страница сайта

Новости сайта

03.07.2017

Напоминаем, что на нашем специализированном сайте Метеоцентр.Азия вы можете получить высокодетализированные автоматические прогнозы погоды по пунктам России, СНГ и мира в авиационном формате (включающие направление и скорость ветра, видимость, явления погоды, количество и форму облачности, нижнюю и верхнюю границу облачности).

Рекомендуем:

Погода в Сухиничи - сегодня

Время (UTC), дата Ветер
(°,м/с) 
Видим.   Явления Облачность Т
(°С)
Тd
(°С)
f(%) Тe
(°С)
Pmin
(гПа)
dP
(гПа)
Po
(мм)
O2
(г/м3)
Тmin Tmax R s Состояние
почвы
03 16.07.19 050 (СВ) 0700 м  туман  ?/?  
+12.9 +12.9 100 +20  1010.1  -0.3  737  281  +12.6       
06 16.07.19 080 (В) 4200 м  слаб. ливневой дождь{туман}  9/9 600 м кучево-дожд. 
[Cb cap]
+14.5 +13.9 96 +22  1009.5  -0.5  736  279  +12.6       
09 16.07.19 110 (В) 18000 м  в посл. час ливневой дождь  9/6 600 м кучево-дожд., средняя 
[Cb cap|Ac As]
+15.8 +12.9 83 +22  1009.6  736  278           
12 16.07.19 110 (В) 28000 м  {ливн. осадки}  8/3 2000 м средняя, верхняя 
[Ac trans|Ci fib]
+19.2 +13 67 +27  1008  -1.1  735  274           
15 16.07.19 120 (ЮВ) 22000 м    9/9 600 м кучево-дожд. 
[Cb cap]
+19.1 +13.9 72 +27  1007.5  -0.4  735  274         
18 16.07.19 360 (С) 10 км  гроза, ливневой дождь  9/9 600 м кучево-дожд. 
[Cb cap]
+14.6 +13.6 94 +23  1008  0.1  735  278    +21.2     
21 16.07.19 120 (ЮВ) 10 км  в посл. час ливневой дождь{гроза}  8/3 2000 м средняя, верхняя 
[Ac trans|Ci fib]
+14.2 +13.1 93 +21  1007.7  -0.4  735  279           
00 17.07.19 тихо ()   5000 м  дымка{гроза, ливн. осадки}  9/6 600 м средняя 
[Sc|Ac As]
+14.5 +13.7 95 +22  1007.2  -0.5  734  278           
03 17.07.19 160 (Ю) 5000 м  слаб. ливневой дождь  9/9 600 м кучево-дожд. 
[Cb cap]
+14.7 +13.9 95 +23  1007  -0.1  734  278  +14       
06 17.07.19 130 (ЮВ) 10 км    9/9 600 м кучево-дожд. 
[Cb cap]
+15.4 +14.1 92 +24  1006.4  -0.5  734  277  +14       
09 17.07.19 тихо ()   7000 м  в посл. час ливневой дождь  9/8 600 м кучево-дожд., средняя 
[Cb cap|Ac cuf]
+15.8 +14.9 94 +25  1006.4  0.1  734  276           
12 17.07.19 100 (В) 25000 м  {ливн. осадки}  9/6 600 м кучево-дожд., средняя, верхняя 
[Cb cap|Ac cuf|Ci sp]
+17.9 +14 78 +26  1005.4  -0.8  733  274           
15 17.07.19 170 (Ю) 7000 м  в посл. час ливневой дождь{гроза}  9/8 600 м кучево-дожд., средняя, верхняя 
[Cb cap|Ac cuf|Ci sp]
+15.6 +14.8 95 +26  1005.2  -0.3  733  276      26     
18 17.07.19 070 (В) 10 км  в посл. час ливневой дождь{гроза}  9/8 600 м кучево-дожд., средняя 
[Cb cap|Ac cast]
+13.8 +12.8 94 +20  1005.1  -0.4  733  278    +18.7  21     
21 17.07.19 тихо ()   6000 м  слаб. ливневой дождь  9/9 600 м кучево-дожд. 
[Cb cap]
+12.1 +11.6 97 +16  1005.6  0.3  733  281           
00 18.07.19 140 (ЮВ) 6000 м  дымка{ливн. осадки}  1/0 верхняя 
[Ci fib]
+10.8 +10.3 97 +13  1004.8  -0.9  732  282           
03 18.07.19 тихо ()   6000 м  дымка  8/3 600 м верхняя 
[Sc|Cc]
+11.1 +10.5 96 +13  1004.7  0.2  733  282  +10.4    0.1     
06 18.07.19 190 (Ю) 10 км    9/9 600 м 
[Sc]
+13.2 +12.3 94 +19  1004.9  0.3  733  279  +10.4    0.1     
09 18.07.19 210 (ЮЗ) 12000 м  {ливн. осадки}  9/9 600 м 
[Sc]
+15.1 +13.2 88 +22  1005.3  0.5  733  277           
12 18.07.19 180 (Ю) 18000 м  в посл. час гроза{ливн. осадки}  9/9 600 м кучево-дожд. 
[Cb cap]
+14.8 +12.4 86 +21  1005.2  0.1  733  278           
15 18.07.19 240 (ЮЗ) 28000 м    8/8 600 м кучево-дожд. 
[Cb cap]
+16.3 +10.4 68 +19  1005.4  0.4  733  277      0.1     
18 18.07.19 160 (Ю) 10 км  слаб. ливневой дождь  9/9 600 м кучево-дожд. 
[Cb cap]
+12.8 +11.4 91 +18  1005.8  0.1  733  280    +18.1     
21 18.07.19 200 (Ю) 6000 м  слаб. ливневой дождь  9/9 600 м кучево-дожд. 
[Cb cap]
+12.5 +11.6 94 +17  1005.2  -0.6  733  280           
00 19.07.19 220 (ЮЗ) 6000 м  слаб. ливневой дождь  9/9 600 м кучево-дожд. 
[Cb cap]
+13.2 +12.3 94 +19  1004.2  -1.1  732  279           
03 19.07.19 250 (З) 10 км  в посл. час ливневой дождь  9/9 600 м кучево-дожд. 
[Cb cap]
+13.3 +12.4 94 +19  1004.9  0.9  733  279  +12.3       
Время (UTC), дата Ветер
(°,м/с) 
Видим.   Явления Облачность Т
(°С)
Тd
(°С)
f(%) Тe
(°С)
Pmin
(гПа)
dP
(гПа)
Po
(мм)
O2
(г/м3)
Тmin Tmax R s Состояние
почвы

Для получения пояснительной информации подведите курсор к названию столбца.

ПОГОДА в Сухиничи - архив

Всё, что Вы хотите узнать о погоде в Сухиничи - удобно и подробно!

Выберите нужную дату (начиная с 1 января 2018* года) и нажмите кнопку "Найти".
Будут отображены архивные сводки погоды по пункту Сухиничи, начиная с указанной даты.


Отображать данные в формате CSV (для использования в таблицах Excel)


Внимание! Наш архив погоды предназначен исключительно для личного некоммерческого использования в познавательных целях. Если Вам необходимы официальные справки о состоянии погоды (для производственных, юридических, коммерческих и т.п. целей), обращайтесь в органы Росгидромета.

*Примечание: данная дата относится к архиву по метеостанциям СССР (Россия, СНГ, Балтия).
Архив по метеостанциям Зарубежной Европы и Азии (кроме Китая) хранится 10 дней, по другим регионам земного шара (Китай, Африка, Америка, Австралия, Океания) - 1 день.

Сухиничи - район местоположения метеостанции


Название, широта, долгота, высота метеостанции:
Сухиничи 54.1°ш. 35.3°д. 238 м над ур. моря [Российская Федерация]

Дополнительная информация

В oтличие oт бoльшинства пoгoдных сайтoв мы публикуем пoдрoбную метеoинфoрмацию в детальнoм прoфессиoнальнoм фoрмате.

Характеристики температуры и влажнoсти вoздуха измеряются на высoте 2 м в тени вдали oт зданий и деревьев.
Скoрoсть ветра измеряется на высoте 10 м (на урoвне рoста челoвека скoрoсть ветра ниже в 1.5-2 раза). Если метеoстанция нахoдится в гoрoде или в лесу, тo скoрoсть ветра занижена на 2-4 м/с пo сравнению с oткрытым местoм. Скoрoсть ветра над акватoриями крупных рек и oзёр, а также на вершинах хoлмoв на 2-5 м/с выше, чем в oбычных услoвиях.
Атмoсфернoе давление в разных тoчках местнoсти мoжет значительнo oтличаться oт давления на метеoстанции, в зависимoсти oт услoвий рельефа (при пoдъёме на 10 м давление пoнижается примернo на 1 мм рт.ст.).